Vorticity
nan nan nan nan nan nan nan nan nan nan nan nan nan nan nan nan nan nan nan nan nan nan nan nan nan nan nan nan nan nan nan nan nan nan nan nan nan nan nan nan nan nan nan nan
nan 6 4 4 7 8 8 9 8 6 4 6 6 6 10 7 6 10 14 16 10 8 10 10 8 8 7 7 6 7 4 6 6 4 7 8 9 9 8 10 7 8 11 nan
nan 7 8 6 6 10 7 7 6 9 7 9 9 14 9 9 12 9 10 18 13 11 11 12 8 7 7 8 7 8 6 7 7 5 5 6 8 9 11 9 7 10 9 nan
nan 7 6 10 11 7 7 8 7 6 8 8 7 14 11 16 11 14 14 14 17 17 11 14 10 7 8 8 9 6 9 7 8 9 4 7 6 6 10 11 12 12 9 nan
nan 8 9 11 9 2 10 7 6 10 11 10 10 7 11 14 19 13 14 5 12 17 17 12 10 7 8 9 8 4 8 8 9 8 6 7 6 8 8 9 13 8 9 nan
nan 3 4 10 11 11 7 6 13 11 11 12 9 6 9 7 12 2 12 14 14 7 10 20 15 8 8 10 6 7 6 7 8 8 9 6 6 9 9 9 9 9 8 nan
nan 7 6 4 12 16 7 8 10 9 10 10 13 10 6 13 13 12 -1 3 6 7 16 18 17 8 11 9 5 6 5 7 10 9 10 11 9 10 9 7 10 9 7 nan
nan 9 8 8 7 7 11 9 6 6 5 9 11 12 16 14 10 7 3 10 10 12 15 18 14 10 9 5 6 6 6 7 10 10 13 10 10 9 10 12 9 9 10 nan
nan 6 12 15 8 4 5 9 8 6 5 8 9 6 7 22 16 14 16 11 10 12 11 15 10 10 6 6 8 5 7 9 9 10 9 9 8 8 12 12 9 10 10 nan
nan 10 13 14 12 6 7 7 9 8 8 5 8 12 24 23 6 12 11 8 9 10 11 10 7 7 8 8 9 7 6 5 2 12 12 12 9 8 11 10 11 9 10 nan
nan 12 12 8 16 12 9 5 3 8 13 10 6 11 10 9 17 13 10 8 9 9 10 6 9 9 10 11 10 7 8 8 4 8 11 10 10 11 7 9 11 10 10 nan
nan 8 11 11 16 14 5 8 7 5 7 3 5 6 11 15 12 10 9 9 8 8 10 7 9 10 11 9 9 8 6 6 7 9 11 7 10 10 8 10 10 9 11 nan
nan 23 12 13 8 18 12 5 10 7 5 5 9 12 9 4 12 12 12 8 9 9 7 8 8 10 11 10 10 10 7 7 9 7 8 12 8 9 9 10 8 8 8 nan
nan 12 13 17 12 6 9 14 1 3 7 12 17 6 12 20 5 8 14 9 8 8 8 9 5 8 9 9 11 11 11 10 10 8 8 11 8 10 9 10 9 9 8 nan
nan 9 9 14 11 -0 12 12 9 9 3 6 10 17 8 0 8 26 17 10 9 9 7 7 7 8 7 10 9 10 10 11 9 7 9 9 9 9 10 9 9 11 8 nan
nan 20 8 9 15 13 12 10 9 15 18 12 3 16 9 1 8 11 13 16 11 9 9 6 8 10 8 9 8 9 10 10 8 8 9 7 10 9 9 8 9 9 8 nan
nan 16 19 15 11 9 20 17 9 11 25 33 28 5 7 7 8 11 13 16 16 13 12 10 10 8 10 8 8 10 9 8 8 8 11 9 8 9 9 9 9 9 9 nan
nan 7 11 12 16 12 -4 16 34 19 23 23 19 9 3 4 10 7 14 12 9 8 9 12 18 16 13 10 11 9 10 10 9 8 10 9 8 8 8 9 9 9 10 nan
nan 3 9 12 7 11 6 4 2 13 14 11 26 24 6 3 3 2 4 9 12 8 8 9 10 11 14 23 18 11 9 8 10 11 9 8 9 7 8 8 8 9 9 nan
nan 4 6 8 13 17 7 -2 5 20 8 7 14 6 24 17 -3 4 7 9 5 9 15 11 10 13 11 13 21 27 19 13 9 4 9 10 10 9 9 9 9 8 9 nan
nan 17 8 7 8 11 18 7 4 18 12 9 7 10 11 15 11 9 8 8 9 11 9 8 12 11 10 11 15 13 9 7 14 20 19 12 10 10 10 8 9 10 9 nan
nan 15 18 17 19 14 12 17 12 12 6 8 12 9 10 7 10 9 8 8 9 10 10 11 10 10 12 13 12 6 -1 -0 0 36 32 8 11 9 10 10 9 9 9 nan
nan 15 6 15 23 17 15 14 11 13 12 11 10 8 11 9 8 9 8 8 10 11 11 11 13 14 13 13 11 10 13 14 8 13 19 16 11 10 10 11 8 9 9 nan
nan 13 14 13 11 14 9 7 10 14 10 8 9 12 8 8 8 8 8 10 9 11 10 12 11 11 11 12 13 11 9 14 22 16 17 11 7 10 10 10 10 8 10 nan
nan 2 16 19 1 8 9 11 10 6 6 10 10 9 10 10 8 11 9 10 10 10 10 11 13 11 9 10 11 12 14 12 10 10 17 20 12 10 9 7 14 16 11 nan
nan nan nan nan nan nan nan nan nan nan nan nan nan nan nan nan nan nan nan nan nan nan nan nan nan nan nan nan nan nan nan nan nan nan nan nan nan nan nan nan nan nan nan nan
CAPE
0 0 0 0 0 0 0 0 0 0 0 0 0 0 0 0 0 22 305 825 1292 1151 1080 1088 1149 1433 1880 2766 3728 4215 4321 4285 4300 3436 2571 1621 794 1719 1961 2129 2183 2256 1964 1055
0 0 0 0 0 0 0 0 0 0 0 0 0 0 0 0 10 4 25 290 864 1033 1309 1308 1451 1558 1831 2711 3864 4413 4280 4395 4515 4097 1426 1229 1614 1760 2547 2729 2092 1822 2069 1427
0 0 0 0 0 0 0 0 0 0 0 0 0 0 0 0 0 1 22 59 364 897 1163 1706 1663 1637 1733 2915 3850 4466 4428 4755 4645 3894 1827 1283 964 2731 2894 2302 1959 1686 2044 1583
0 0 0 0 0 0 0 0 0 0 0 0 0 0 1 0 28 36 14 39 3 979 1331 2043 1939 1940 1805 2696 3812 4597 4709 4886 4278 4028 2350 1885 2442 2454 2468 1917 1721 1836 1773 2029
0 0 0 0 0 0 0 0 0 0 0 0 0 0 0 36 170 43 82 45 34 236 947 1859 2221 2267 2189 2873 4248 4475 4538 3473 3264 3803 3402 3227 3173 2865 2449 2948 1699 2069 2663 1919
0 0 0 0 0 0 0 0 0 0 0 0 0 0 0 0 28 6 31 271 62 44 239 1244 2327 2631 2645 4096 4067 3901 2526 1673 1816 2915 2957 3218 2592 2927 2735 2001 1276 2393 2298 1949
0 0 0 0 0 0 0 0 0 0 0 0 0 0 0 6 55 24 11 100 38 93 269 1238 2732 2899 3905 3472 3245 2438 2203 1427 1326 1884 2397 2411 2303 2724 3105 2861 2458 2587 2217 2058
0 0 0 0 0 0 0 0 0 0 0 0 49 2 29 81 69 0 0 14 97 174 572 1277 3054 3528 3883 2545 2031 1614 1639 1312 2212 2489 2726 3030 3341 3010 3475 2877 2978 2629 1772 1240
1 0 0 0 0 0 0 0 0 0 0 0 0 18 68 138 0 0 23 257 428 1057 949 1921 3809 3903 3750 3153 2348 2131 1786 2622 2699 2439 2632 3133 3368 3054 3264 2799 2817 1732 1513 978
0 9 0 4 3 0 0 0 0 0 3 14 1 106 250 298 65 802 1171 1227 1730 1800 1392 3424 3682 3735 3561 3118 2813 2451 2305 2353 2509 1880 2686 3240 2940 3224 3028 2908 2407 1849 1287 1038
0 25 0 3 29 4 0 0 0 1 30 24 38 126 311 528 805 1635 1632 1789 2091 2433 2091 2538 2839 2854 3011 2693 2861 2341 2633 2445 2219 1850 2681 3296 3098 2963 2551 2174 1650 1429 1375 1076
2 36 13 0 19 4 3 0 0 2 13 34 106 98 19 307 617 1543 1815 1837 2272 2581 2593 2843 3062 3109 2713 2944 3027 3051 2969 2665 2086 3104 3222 3024 2864 2398 2492 2020 1864 1695 1372 1274
249 113 179 75 16 11 0 0 9 38 137 69 120 245 237 577 741 1862 2084 2028 2658 3027 2877 2713 3421 3267 3081 3062 3105 3164 3091 2424 2543 3083 2978 2881 1997 2402 2425 1971 1893 1839 1504 1280
198 60 246 33 78 42 40 4 1 33 158 46 18 147 825 645 1140 1388 2464 2729 2761 2998 3122 2804 2997 3154 3321 3084 3683 3583 3040 2440 2970 2973 2393 2672 2188 2333 2159 2251 2030 1666 1388 1186
252 699 183 49 4 0 0 0 15 9 13 47 1042 1360 558 437 1550 1802 2568 2447 2467 3004 2601 2873 3013 3198 3614 3431 3805 3416 2938 3220 3121 2705 2372 2527 2286 2321 2303 2027 1877 1656 1200 1139
297 576 227 93 8 7 0 2 1 4 5 5 195 727 354 307 1568 1702 1824 2499 2664 2744 2498 2782 2697 2785 3219 3314 3865 3654 3544 3431 3115 2753 2410 2304 2303 2270 2147 1989 1751 1787 1650 1632
86 500 688 376 117 230 129 29 52 11 317 369 216 462 1464 1912 2336 2503 2014 1673 2065 2337 2464 3273 2926 3181 3383 3219 2910 3726 3473 3270 3165 2937 2591 2347 2380 2049 2137 1849 1679 1576 1678 1471
0 0 962 728 897 284 267 1006 551 321 1532 930 961 91 262 1927 2545 2797 2962 2659 2609 2800 3029 3290 3538 3016 3467 3141 3287 2788 2804 3552 3387 3121 2598 2208 2286 2190 2214 1917 1865 1912 1822 1698
206 498 320 328 229 181 97 363 618 119 1503 1576 354 1300 294 2331 2488 2514 2511 2865 2890 2590 2644 2780 2975 3268 4638 3736 3795 2855 2510 3614 3961 3787 2822 2538 2297 2296 2183 1897 1949 1911 1840 1914
75 1045 244 258 180 235 275 248 59 50 1220 1442 1471 1589 1942 2577 2464 1810 1991 2067 2399 2637 2831 2846 2956 2952 3133 3882 3928 3646 3602 3498 3679 3674 3377 3115 2623 2553 2312 2090 2214 2260 2062 1770
352 426 180 81 10 470 360 116 0 232 842 1172 1039 1168 1416 1465 1665 1341 1169 1238 1415 2051 2432 2434 3019 2519 2444 2247 2242 0 0 0 4 2106 3180 3337 3102 2907 2789 2551 2435 2395 2177 1707
426 8 170 216 166 315 343 102 289 1554 1154 1281 1142 1290 1353 1100 730 659 701 1041 1089 1388 1560 1817 2454 2532 2474 1802 0 0 0 0 0 152 2546 2891 3078 2714 2639 2872 2694 2622 2456 2153
97 95 53 1216 1158 1067 1146 1258 1506 1453 1222 783 728 832 1001 713 646 759 840 756 975 1345 1455 1325 1616 2288 2773 2065 452 0 0 0 63 0 27 1549 2557 2758 2663 2815 2895 2651 2530 2120
388 8 306 471 1010 862 755 664 651 792 902 562 618 693 678 642 602 711 908 857 961 1049 1444 1304 1431 1743 2205 2218 1945 1521 1375 1277 1017 672 583 1128 2092 2386 2759 2726 2549 2240 2306 1796
4 0 29 47 927 630 570 561 571 470 404 241 376 361 349 515 462 419 642 1145 817 1003 787 910 1151 1225 1391 1378 929 1140 1235 1498 1258 1553 2108 2247 2305 2295 2684 2415 1230 1844 1755 1012
0 0 2 0 27 797 517 301 59 33 5 51 96 114 135 209 286 628 491 791 763 580 479 346 402 298 244 366 395 186 570 838 1267 1723 1728 2144 2113 2031 2009 1609 1 1 1 1